[[{"header":{"parameterUnit":"m.s-1","parameterCategory":1,"la1":30.2991,"la2":30.254,"lo1":-89.0895,"lo2":-89.0444,"dy":0.0017,"dx":0.0017,"nx":28,"ny":28,"refTime":"2025-04-28T09:00:00:Z","depth":0,"parameterNumber":2,"parameterNumberName":"U-component_of_WINDS"},"data":[0,0,0,0,0,0,0,0,0,0,0,0,0,0,0,0,0,0,0,0,0,0,0,0,0,0,0,0,0,0,0,0,0,0,0,0,0,0,0,0,0,0,0,0,0,0,0,0,0,0,0,0,0,0,0,0,0,0,-1.6504,-1.6504,0,-1.646,-1.646,-1.6459,-1.6401,-1.64,-1.6399,-1.6399,-1.6353,-1.6352,-1.6352,0,0,0,0,0,0,0,0,0,0,0,0,0,-1.654,-1.6539,-1.6504,-1.6504,-1.6503,-1.646,-1.646,-1.6459,-1.6401,-1.64,-1.6399,-1.6398,-1.6353,-1.6352,-1.6352,0,0,0,0,0,0,0,0,0,0,0,0,0,-1.6513,-1.6539,-1.6505,-1.647,-1.6466,-1.646,-1.646,-1.6459,-1.6402,-1.64,-1.6399,-1.6398,-1.6353,-1.6352,-1.6352,-1.6377,0,0,-1.635,-1.635,0,0,0,0,0,0,0,0,-1.6514,-1.6512,-1.6475,-1.6472,-1.6468,-1.6435,-1.6455,-1.6431,-1.6402,-1.6426,-1.6399,-1.6397,-1.6381,-1.6378,-1.6373,-1.6375,-1.6373,-1.635,-1.635,-1.635,-1.6349,0,0,0,0,0,0,0,-1.6516,-1.6513,-1.6487,-1.6475,-1.647,-1.6456,-1.6451,-1.645,-1.6412,-1.6424,-1.642,-1.6415,-1.6379,-1.6374,-1.6371,-1.6372,-1.635,-1.635,-1.6349,-1.6349,-1.6393,-1.6394,0,0,0,0,0,0,-1.6523,-1.6515,-1.6488,-1.6486,-1.6488,-1.6457,-1.6451,-1.6447,-1.6412,-1.6405,-1.6416,-1.6413,-1.6375,-1.6372,-1.637,-1.6397,-1.635,-1.6349,-1.6349,-1.6391,-1.6393,-1.6395,0,0,0,0,0,0,-1.6524,-1.6522,-1.649,-1.6499,-1.6494,-1.6457,-1.6454,-1.6447,-1.6441,-1.6406,-1.6399,-1.6418,-1.6374,-1.637,-1.6376,-1.6394,-1.6349,-1.6348,-1.6389,-1.6392,-1.6394,-1.6451,0,0,0,0,0,0,-1.6526,-1.6522,-1.6531,-1.65,-1.6494,-1.6497,-1.6455,-1.6447,-1.6441,-1.6435,-1.6406,-1.64,-1.6372,-1.6377,-1.6375,-1.6393,-1.6348,-1.6388,-1.639,-1.6393,-1.6448,-1.6455,-1.6462,0,0,0,0,0,-1.6527,-1.6549,-1.6532,-1.6529,-1.6504,-1.6498,-1.6495,-1.6463,-1.6442,-1.6451,-1.6429,-1.6401,-1.6393,-1.6378,-1.6375,-1.6393,-1.6386,-1.639,-1.6393,-1.6445,-1.6454,-1.6462,0,0,0,0,0,0,-1.6584,-1.6544,-1.6525,-1.6537,-1.6522,-1.6489,-1.6499,-1.6474,-1.6464,-1.6459,-1.642,-1.6414,-1.6424,-1.6409,-1.6393,-1.6416,-1.6385,-1.6388,-1.6425,-1.6434,-1.6441,-1.6444,-1.6348,0,0,0,0,0,-1.6598,-1.6596,-1.6562,-1.6576,-1.6569,-1.6536,-1.6532,-1.6509,-1.6491,-1.6484,-1.6462,-1.6445,-1.6439,-1.6436,-1.6428,-1.6445,-1.6438,-1.6457,-1.6464,-1.647,-1.6473,-1.6481,-1.6489,-1.6405,-1.6405,-1.6405,0,0,-1.6626,-1.6605,-1.6606,-1.6587,-1.6572,-1.6571,-1.653,-1.6531,-1.653,-1.6484,-1.6487,-1.6471,-1.645,-1.6462,-1.6466,-1.6449,-1.6494,-1.6474,-1.6479,-1.6479,-1.6486,-1.6494,-1.6501,-1.6408,-1.6407,-1.6407,0,0,-1.6678,-1.6662,-1.6672,-1.6658,-1.6636,-1.6614,-1.6616,-1.6587,-1.6574,-1.6578,-1.6543,-1.6541,-1.6531,-1.6518,-1.651,-1.6558,-1.6532,-1.6557,-1.6594,-1.6602,-1.6609,-1.6615,-1.6632,-1.6639,-1.656,-1.656,-1.656,0,-1.6716,-1.6714,-1.668,-1.6683,-1.6676,-1.6635,-1.6645,-1.6633,-1.661,-1.6606,-1.6588,-1.6575,-1.6558,-1.6566,-1.6578,-1.6573,-1.6575,-1.656,-1.6611,-1.6616,-1.6621,-1.6637,-1.6644,-1.6563,-1.6563,-1.6562,-1.6562,0,-1.6762,-1.6761,-1.6772,-1.6751,-1.6745,-1.6752,-1.6719,-1.6717,-1.6696,-1.6675,-1.6679,-1.6658,-1.6645,-1.6645,-1.6624,-1.6651,-1.6642,-1.6618,-1.6586,-1.6633,-1.6647,-1.6653,-1.6568,-1.6567,-1.6566,-1.6565,0,0,-1.6848,-1.6809,-1.6813,-1.6803,-1.6777,-1.6775,-1.678,-1.6768,-1.6768,-1.6753,-1.6757,-1.675,-1.6728,-1.6719,-1.6695,-1.6703,-1.6743,-1.6678,-1.6677,-1.6691,-1.6772,-1.679,-1.6798,-1.6726,-1.6727,-1.6727,-1.6774,0,-1.6895,-1.6901,-1.6871,-1.6886,-1.6885,-1.6846,-1.685,-1.6834,-1.6816,-1.6812,-1.6791,-1.6787,-1.6758,-1.6753,-1.6759,-1.6737,-1.6759,-1.6733,-1.6728,-1.6729,-1.6735,-1.6805,-1.6824,-1.6869,-1.6779,-1.678,-1.6781,0,-1.695,-1.6939,-1.6954,-1.6927,-1.6925,-1.693,-1.6916,-1.6913,-1.6895,-1.6881,-1.6871,-1.6844,-1.6848,-1.6818,-1.6822,-1.6805,-1.6802,-1.6791,-1.6792,-1.679,-1.6758,-1.6805,-1.6882,-1.6889,-1.6789,-1.6789,-1.6788,0,-1.7012,-1.7,-1.7008,-1.7,-1.6969,-1.6973,-1.696,-1.694,-1.6935,-1.6924,-1.692,-1.691,-1.6904,-1.6896,-1.6867,-1.6848,-1.6875,-1.6842,-1.6863,-1.6864,-1.687,-1.687,-1.6948,-1.6868,-1.6868,-1.6868,-1.6868,0,-1.7067,-1.7078,-1.7035,-1.7039,-1.705,-1.7016,-1.7027,-1.7011,-1.6993,-1.6994,-1.696,-1.6961,-1.6923,-1.692,-1.6897,-1.6904,-1.6902,-1.6891,-1.6884,-1.6894,-1.6895,-1.6891,-1.6887,-1.687,-1.6869,-1.6869,-1.6869,0,-1.7138,-1.7109,-1.7115,-1.7085,-1.7077,-1.7087,-1.7061,-1.7064,-1.7043,-1.7045,-1.7043,-1.7011,-1.7006,-1.6976,-1.6964,-1.6949,-1.6965,-1.6952,-1.6971,-1.6967,-1.6989,-1.6988,-1.7067,-1.7075,-1.6991,-1.6991,-1.6992,0,-1.7175,-1.7182,-1.7153,-1.7151,-1.714,-1.7137,-1.7132,-1.7099,-1.7095,-1.7074,-1.708,-1.7072,-1.7064,-1.7058,-1.7034,-1.7025,-1.7012,-1.704,-1.701,-1.7019,-1.7012,-1.7013,-1.7013,-1.7047,-1.7048,-1.7048,-1.7049,0,-1.7245,-1.723,-1.7224,-1.7213,-1.7208,-1.7198,-1.7186,-1.7186,-1.7149,-1.7147,-1.7141,-1.7135,-1.7123,-1.7116,-1.7103,-1.709,-1.7064,-1.7059,-1.7063,-1.7073,-1.7084,-1.7078,-1.6988,-1.7057,-1.7056,-1.7056,-1.7055,-1.7055,-1.73,-1.7304,-1.7285,-1.7279,-1.7266,-1.7256,-1.7257,-1.7237,-1.7232,-1.722,-1.7201,-1.7198,-1.718,-1.7159,-1.7148,-1.7146,-1.7131,-1.7137,-1.7139,-1.7141,-1.7146,-1.7084,-1.7143,-1.7143,-1.7143,-1.7143,-1.7142,0,-1.7368,-1.7353,-1.7348,-1.7332,-1.7328,-1.7304,-1.7289,-1.7288,-1.7286,-1.7271,-1.7264,-1.7258,-1.7251,-1.7226,-1.7217,-1.722,-1.7208,-1.7219,-1.7218,-1.7215,-1.716,-1.7157,-1.7229,-1.7229,-1.7229,-1.7229,-1.7228,-1.7228,-1.7403,-1.7409,-1.7393,-1.7393,-1.7379,-1.7376,-1.737,-1.736,-1.7348,-1.7343,-1.7337,-1.7321,-1.7302,-1.7291,-1.7284,-1.7277,-1.7275,-1.729,-1.7279,-1.7228,-1.7219,-1.7211,-1.7209,-1.729,-1.729,-1.7335,-1.7335,-1.7336]},{"header":{"parameterUnit":"m.s-1","parameterCategory":1,"la1":30.2991,"la2":30.254,"lo1":-89.0895,"lo2":-89.0444,"dy":0.0017,"dx":0.0017,"nx":28,"ny":28,"refTime":"2025-04-28T09:00:00:Z","depth":0,"parameterNumber":3,"parameterNumberName":"V-component_of_WINDS"},"data":[0,0,0,0,0,0,0,0,0,0,0,0,0,0,0,0,0,0,0,0,0,0,0,0,0,0,0,0,0,0,0,0,0,0,0,0,0,0,0,0,0,0,0,0,0,0,0,0,0,0,0,0,0,0,0,0,0,0,4.0459,4.0459,0,4.0438,4.0438,4.0438,4.0393,4.0392,4.0392,4.0391,4.037,4.037,4.0371,0,0,0,0,0,0,0,0,0,0,0,0,0,4.0463,4.0463,4.046,4.0459,4.0459,4.0438,4.0438,4.0438,4.0394,4.0392,4.0391,4.039,4.037,4.037,4.0371,0,0,0,0,0,0,0,0,0,0,0,0,0,4.0454,4.0463,4.046,4.0434,4.0432,4.0438,4.0438,4.0438,4.0394,4.0392,4.0391,4.039,4.037,4.037,4.0371,4.04,0,0,4.0372,4.0372,0,0,0,0,0,0,0,0,4.0454,4.0454,4.0438,4.0436,4.0433,4.0417,4.0432,4.0425,4.0394,4.0408,4.0391,4.0389,4.0387,4.0386,4.0385,4.0399,4.0398,4.0372,4.0372,4.0372,4.0373,0,0,0,0,0,0,0,4.0455,4.0454,4.0451,4.0438,4.0435,4.0425,4.0422,4.043,4.0405,4.0407,4.0404,4.0402,4.0385,4.0384,4.0384,4.0398,4.0372,4.0372,4.0373,4.0373,4.0436,4.0437,0,0,0,0,0,0,4.0459,4.0455,4.0452,4.045,4.0441,4.0426,4.0423,4.0424,4.0405,4.0401,4.0403,4.04,4.0384,4.0384,4.0383,4.0416,4.0372,4.0373,4.0373,4.0435,4.0436,4.0438,0,0,0,0,0,0,4.046,4.0459,4.0453,4.0452,4.045,4.0427,4.0429,4.0424,4.0423,4.0402,4.0398,4.0407,4.0383,4.0382,4.0396,4.0415,4.0373,4.0373,4.0433,4.0435,4.0437,4.0483,0,0,0,0,0,0,4.046,4.046,4.047,4.0453,4.045,4.0466,4.043,4.0425,4.0424,4.0419,4.0404,4.0401,4.0382,4.0396,4.0397,4.0415,4.0374,4.0431,4.0434,4.0436,4.048,4.0487,4.0492,0,0,0,0,0,4.046,4.0484,4.0471,4.0471,4.0463,4.0467,4.0466,4.0444,4.0426,4.0436,4.0423,4.0401,4.0413,4.0398,4.0398,4.0417,4.043,4.0433,4.0436,4.0477,4.0485,4.0492,0,0,0,0,0,0,4.0505,4.0481,4.0466,4.0486,4.0479,4.0459,4.0472,4.0453,4.0452,4.0448,4.0421,4.0418,4.0435,4.0427,4.0411,4.0444,4.0418,4.0421,4.0449,4.0456,4.0463,4.0464,4.0374,0,0,0,0,0,4.0517,4.0522,4.0501,4.052,4.0517,4.0496,4.0496,4.048,4.0472,4.0469,4.0456,4.045,4.0452,4.0454,4.0455,4.0479,4.0475,4.0492,4.0498,4.0503,4.0507,4.0519,4.0526,4.0448,4.0448,4.0448,0,0,4.0542,4.053,4.0535,4.0529,4.0521,4.0527,4.0493,4.0501,4.0505,4.047,4.0482,4.0473,4.0464,4.0483,4.0491,4.0477,4.0527,4.0508,4.0512,4.0512,4.0523,4.053,4.0537,4.045,4.045,4.045,0,0,4.0591,4.0582,4.0597,4.059,4.0579,4.0565,4.0569,4.0552,4.0545,4.0557,4.0531,4.0536,4.054,4.0534,4.0532,4.058,4.056,4.0581,4.0613,4.0626,4.0632,4.0637,4.0654,4.0661,4.0584,4.0584,4.0584,0,4.0623,4.063,4.0607,4.0616,4.0614,4.0583,4.0598,4.0593,4.0583,4.0583,4.0568,4.0573,4.0565,4.0582,4.0594,4.0593,4.0597,4.0582,4.0633,4.0638,4.0643,4.0658,4.0665,4.0587,4.0587,4.0586,4.0586,0,4.0671,4.0677,4.069,4.0681,4.0681,4.0693,4.0672,4.0675,4.0659,4.0646,4.0659,4.0648,4.0646,4.0649,4.0634,4.0665,4.0657,4.0638,4.061,4.0653,4.0667,4.0673,4.0591,4.059,4.0589,4.0588,0,0,4.0746,4.0725,4.073,4.0726,4.0712,4.0716,4.0727,4.0725,4.0728,4.0723,4.0732,4.0737,4.0719,4.0717,4.0701,4.0712,4.075,4.0691,4.0691,4.0702,4.0784,4.0798,4.0805,4.0737,4.0738,4.0739,4.0784,0,4.0791,4.0808,4.0788,4.0809,4.0814,4.0785,4.0795,4.0788,4.0777,4.078,4.0768,4.0771,4.0748,4.0746,4.0756,4.0743,4.0766,4.074,4.0745,4.0746,4.0748,4.0812,4.0827,4.087,4.079,4.0791,4.0791,0,4.0846,4.0843,4.0865,4.085,4.0852,4.0861,4.0857,4.0861,4.0853,4.0844,4.0842,4.0822,4.0833,4.0807,4.0821,4.0804,4.0805,4.0799,4.08,4.0799,4.0771,4.0813,4.0884,4.089,4.08,4.0799,4.0799,0,4.0898,4.09,4.0913,4.0911,4.0894,4.0901,4.0895,4.0885,4.0885,4.0883,4.0883,4.0882,4.0881,4.0881,4.0863,4.0845,4.0879,4.0852,4.0872,4.0873,4.088,4.088,4.0951,4.0882,4.0882,4.0882,4.0881,0,4.095,4.0965,4.0937,4.0945,4.0961,4.0938,4.0954,4.0945,4.0937,4.0943,4.0918,4.0925,4.09,4.0904,4.089,4.0904,4.0904,4.0897,4.0893,4.0899,4.09,4.0899,4.0895,4.0883,4.0883,4.0883,4.0882,0,4.1011,4.0993,4.1006,4.0989,4.0985,4.0998,4.0983,4.0991,4.0978,4.0987,4.0987,4.0968,4.0971,4.0953,4.0953,4.0944,4.0965,4.0956,4.0968,4.0965,4.0986,4.0984,4.1059,4.1068,4.0993,4.0994,4.0995,0,4.1045,4.1056,4.104,4.1043,4.1037,4.1041,4.1042,4.1019,4.1021,4.1013,4.1021,4.1023,4.1023,4.103,4.1016,4.1016,4.1007,4.1033,4.1007,4.1013,4.1007,4.1007,4.1008,4.1039,4.104,4.1041,4.1041,0,4.1108,4.1099,4.1099,4.1098,4.1098,4.1096,4.1092,4.1095,4.1071,4.1074,4.1078,4.1078,4.1078,4.108,4.1078,4.1072,4.1053,4.105,4.1054,4.106,4.1067,4.1063,4.0982,4.1048,4.1047,4.1047,4.1046,4.1046,4.1156,4.1164,4.1155,4.1157,4.1152,4.1148,4.1154,4.1143,4.1145,4.1143,4.113,4.1136,4.1129,4.1123,4.1119,4.1124,4.1111,4.1118,4.112,4.1122,4.1126,4.1066,4.1123,4.1123,4.1123,4.1123,4.1123,0,4.1217,4.121,4.1212,4.1207,4.1209,4.1191,4.1186,4.1188,4.1194,4.1188,4.1189,4.1193,4.1195,4.1181,4.1182,4.1188,4.1179,4.1189,4.1188,4.1187,4.1137,4.1133,4.1196,4.1196,4.1196,4.1196,4.1196,4.1196,4.1249,4.1262,4.1252,4.1262,4.1255,4.126,4.1258,4.1256,4.1251,4.1256,4.1258,4.1249,4.124,4.124,4.1241,4.1237,4.1239,4.1251,4.1244,4.1198,4.119,4.1184,4.1179,4.1252,4.1252,4.1294,4.1294,4.1294]}]]